Flag for U.S.A. Weather past 2 weeks in Reston, Virginia, U.S.A.

Now
15 °F

Passing clouds.


Feels Like: 15 °F
Forecast: 15 / 36 °F
Wind: No wind

Location: Washington-Dulles International Airport

Current Time: Jan 29, 2015 at 4:25:48 AM

Latest Report: Jan 29, 2015 at 3:52 AM


Visibility: 10 mi

Pressure: 30.34 "Hg

Humidity: 80%

Dew point: 10 °F

Location of RestonLocation

Historic Weather in Reston — Graph

°F

Reston temperature yesterday

Maximum temperature yesterday: 35 °F (at 3:52 PM)
Minimum temperature yesterday: 19 °F (at 10:52 PM)
Average temperature yesterday: 26 °F

Past Weeks' High & Low Weather Summary

 TemperatureHumidityPressure
High46 °F (Jan 19, 2:52 PM)100% (Jan 21, 12:52 PM)30.47 "Hg (Jan 21, 12:52 PM)
Low16 °F (Jan 29, 2:52 AM)32% (Jan 28, 2:52 PM)29.48 "Hg (Jan 24, 1:52 PM)
Average32 °F73%30.04 "Hg
* Reported Jan 14 2:52 AM — Jan 29 2:52 AM, Reston, Weather by CustomWeather, © 2014

Note: Actual official high and low records may vary slightly from our data, if they occured in-between our weather recording intervals... More about our weather records

Advertising

Reston weather history for previous 24 hours

 ConditionsComfort  
Time TempWeatherWind HumidityBarometerVisibility
2:52 AM
Jan 29
16 °FClear.No wind77%30.34 "Hg10 mi
1:52 AM17 °FClear.No wind74%30.34 "Hg10 mi
12:52 AM21 °FClear.3 mph60%30.34 "Hg10 mi
11:52 PM
Jan 28
21 °FClear.3 mph55%30.35 "Hg10 mi
10:52 PM19 °FClear.No wind65%30.36 "Hg10 mi
9:52 PM26 °FClear.5 mph42%30.34 "Hg10 mi
8:52 PM26 °FClear.5 mph42%30.34 "Hg10 mi
7:52 PM28 °FClear.7 mph39%30.32 "Hg10 mi
6:52 PM29 °FPassing clouds.6 mph39%30.30 "Hg10 mi
5:52 PM31 °FPassing clouds.8 mph38%30.29 "Hg10 mi
4:52 PM33 °FSunny.14 mph33%30.27 "Hg10 mi
3:52 PM35 °FSunny.13 mph32%30.25 "Hg10 mi
2:52 PM34 °FSunny.17 mph32%30.24 "Hg10 mi
1:52 PM33 °FSunny.17 mph33%30.24 "Hg10 mi
12:52 PM31 °FSunny.17 mph38%30.24 "Hg10 mi
11:52 AM29 °FSunny.16 mph39%30.25 "Hg10 mi
10:52 AM27 °FSunny.13 mph45%30.26 "Hg10 mi
9:52 AM26 °FSunny.14 mph44%30.25 "Hg10 mi
8:52 AM23 °FSunny.15 mph50%30.22 "Hg10 mi
7:52 AM21 °FSunny.13 mph55%30.20 "Hg10 mi
6:52 AM20 °FClear.12 mph60%30.17 "Hg10 mi
5:52 AM20 °FClear.9 mph60%30.13 "Hg10 mi
4:52 AM21 °FClear.13 mph60%30.11 "Hg10 mi
Weather by CustomWeather, © 2014

See weather overviewHow to use our weather pages